Regional Weather Roundup
Issued by NWS

Home | Current Version | Previous Version | Text Only | Print | Product List | Glossary Off
Versions: 1 2 3 4 5 6 7 8 9 10 11 12 13 14 15 16 17 18 19 20 21 22 23 24 25 26 27 28 29 30 31 32 33 34 35 36 37 38 39 40 41 42 43 44 45 46 47 48 49 50

000
ASUS43 KFSD 221002
RWRSD

WEATHER ROUNDUP FOR SOUTH DAKOTA
NATIONAL WEATHER SERVICE SIOUX FALLS SD
500 AM CDT FRI AUG 22 2014

NOTE: "FAIR" INDICATES FEW OR NO CLOUDS BELOW 12,000 FEET WITH NO
SIGNIFICANT WEATHER AND/OR OBSTRUCTIONS TO VISIBILITY.


SDZ001>005-009-010-012>017-221100-
NORTHWEST AND NORTH CENTRAL SOUTH DAKOTA

CITY           SKY/WX    TMP DP  RH WIND       PRES   REMARKS
BUFFALO          N/A     59  58  96 N6        30.00R
FAITH            N/A     63  61  93 N10       30.03R
MOBRIDGE       HVY RAIN  63  62  97 N9        29.99F FOG
$$

SDZ012>016-024>037-041>051-057-063-072>074-221100-
SOUTHWEST AND SOUTH CENTRAL SOUTH DAKOTA

CITY           SKY/WX    TMP DP  RH WIND       PRES   REMARKS
RAPID CTY ARPT MOCLDY    62  60  93 N17       30.02F
PIERRE         MOCLDY    66  65  96 N9        29.95R
CUSTER         CLEAR     50  47  89 N3        30.12S
ELLSWORTH AFB  MOCLDY    62  61  96 N13       30.03S
PHILIP         MOCLDY    67  61  81 NE9       29.96R
PINE RIDGE     MOCLDY    60  56  86 SW7       30.02R
WINNER         FAIR      67  63  87 SE6       29.94S
$$

SDZ004>011-016>023-039-040-221100-
NORTHEAST SOUTH DAKOTA

CITY           SKY/WX    TMP DP  RH WIND       PRES   REMARKS
ABERDEEN       PTCLDY    61  61 100 NW6       29.95R
WATERTOWN      FOG       61  61 100 N5        29.93R VSB 1/4
SISSETON         N/A     63  63 100 N3        29.90S
$$

SDZ017-020-022-023-036>040-048>070-221100-
SOUTHEAST SOUTH DAKOTA

CITY           SKY/WX    TMP DP  RH WIND       PRES   REMARKS
SIOUX FALLS    PTCLDY    64  63  96 N3        29.93R
HURON          FOG       57  56  96 NW5       29.91S VSB 1/4
CHAMBERLAIN    CLEAR     64  63  96 CALM      29.93S
MITCHELL       CLEAR     64  63  96 CALM      29.92R FOG
YANKTON        CLEAR     66  64  94 CALM      29.92R
$$

ABBREVIATIONS USED IN REMARKS
   TC - TEMPERATURE IN CELSIUS
  WCI - WIND CHILL INDEX
   HX - HEAT INDEX
  VSB - VISIBILITY



USA.gov is the U.S. government's official web portal to all federal, state and local government web resources and services.